White Center, Washington, United States
Lat: 47.52N, Lon: 122.35W
Wx Zone: WAZ508
Local Info
Past Weather Observations for Today

NOTE: This archive is for the closest National Weather Service station to White Center. Information may differ from the station used for current weather conditions.

Click here for Long-term Archive

Time Weather Temperature Dewpoint Humidity Pressure Winds Precip Visibility
19:53
Partly Cloudy
68°F / 20°C 52°F / 11°C 56% 29.98 in
(1015 mb)
SSW 4.6 mph
(SSW 7 kph)
- 10SM
18:53
Partly Cloudy
70°F / 21°C 52°F / 11°C 53% 29.98 in
(1015 mb)
S 4.6 mph
(S 7 kph)
- 10SM
17:53
Partly Cloudy
72°F / 22°C 54°F / 12°C 53% 29.98 in
(1015 mb)
Variable 5.8 mph
(Variable 9 kph)
- 10SM
16:53
Partly Cloudy
72°F / 22°C 54°F / 12°C 53% 29.98 in
(1015 mb)
SSE 5.8 mph
(SSE 9 kph)
- 10SM
15:53
Partly Cloudy
72°F / 22°C 54°F / 12°C 53% 29.98 in
(1015 mb)
Variable 6.9 mph
(Variable 11 kph)
- 10SM
14:53
Partly Cloudy
72°F / 22°C 52°F / 11°C 50% 29.98 in
(1015 mb)
SW 6.9 mph
(SW 11 kph)
- 10SM
13:53
Mostly Cloudy
72°F / 22°C 52°F / 11°C 50% 29.98 in
(1015 mb)
SW 8.1 mph
(SW 13 kph)
- 10SM
12:53
Overcast
70°F / 21°C 52°F / 11°C 53% 29.98 in
(1015 mb)
SW 6.9 mph
(SW 11 kph)
- 10SM
11:53
Overcast
68°F / 20°C 50°F / 10°C 53% 29.98 in
(1015 mb)
SW 9.2 mph
(SW 15 kph)
- 10SM
10:53
Overcast
66°F / 19°C 50°F / 10°C 56% 29.98 in
(1015 mb)
Variable 6.9 mph
(Variable 11 kph)
- 10SM
10:17
Mostly Cloudy
70°F / 21°C 50°F / 10°C 50% 29.98 in
(1015 mb)
S 12.7 mph
(S 20 kph)
- 10SM
09:53
Overcast
66°F / 19°C 50°F / 10°C 56% 29.98 in
(1015 mb)
SSE 11.5 mph
(SSE 19 kph)
- 10SM
09:10
Mostly Cloudy
66°F / 19°C 52°F / 11°C 60% 29.98 in
(1015 mb)
S 10.4 mph
(S 17 kph)
- 10SM
08:53
Mostly Cloudy
64°F / 18°C 52°F / 11°C 64% 29.98 in
(1015 mb)
S 12.7 mph
(S 20 kph)
- 10SM
07:53
Overcast
63°F / 17°C 50°F / 10°C 64% 29.95 in
(1014 mb)
S 11.5 mph
(S 19 kph)
- 10SM
06:53
Overcast
63°F / 17°C 50°F / 10°C 64% 29.95 in
(1014 mb)
S 8.1 mph
(S 13 kph)
- 10SM
05:53
Overcast
61°F / 16°C 50°F / 10°C 68% 29.95 in
(1014 mb)
SSE 8.1 mph
(SSE 13 kph)
- 10SM
04:53
Overcast
61°F / 16°C 52°F / 11°C 72% 29.92 in
(1013 mb)
S 8.1 mph
(S 13 kph)
- 10SM
03:53
Overcast
61°F / 16°C 52°F / 11°C 72% 29.89 in
(1012 mb)
S 9.2 mph
(S 15 kph)
- 10SM
02:53
Overcast
63°F / 17°C 52°F / 11°C 68% 29.89 in
(1012 mb)
S 8.1 mph
(S 13 kph)
- 10SM
01:53
Mostly Cloudy
63°F / 17°C 52°F / 11°C 68% 29.89 in
(1012 mb)
SSE 6.9 mph
(SSE 11 kph)
- 10SM
00:53
Mostly Cloudy
63°F / 17°C 52°F / 11°C 68% 29.89 in
(1012 mb)
S 5.8 mph
(S 9 kph)
- 10SM
Time Weather Temperature Dewpoint Humidity Pressure Winds Precip Visibility


Weather for websites

WeatherForYou.com, LLC is not responsible for any damages or problems caused by this service. Current weather conditions are obtained from the closest station including government and personal stations which may have varying degrees of accuracy. Weather forecasts are derived from the NOAA NDFD. Like all things, this site belongs to Jesus Christ... He just trusts me to maintain it. If you have any questions or comments email webmaster@weatherforyou.com

Copyright © 2014, WeatherForYou.com LLC. All rights reserved.